Theta_e
298 291 287 290 291 289 287 286 285 288 291 288 289 290 295 298 295 294 294 295 296 298 301 302 312 321 326 328 329 330 329 329 330 330 330 331 330 331 331 332 332 331 332 331
293 288 293 294 293 291 288 285 284 289 292 288 287 287 292 295 296 295 296 296 296 297 297 300 302 306 317 326 328 330 331 329 330 331 331 333 332 331 332 332 332 331 330 330
287 291 295 293 290 289 288 285 284 285 288 288 287 283 287 292 294 295 295 296 297 298 298 298 299 302 305 316 326 328 331 331 331 331 332 330 330 330 330 330 330 331 333 331
289 293 292 291 289 290 285 290 289 287 284 277 285 274 283 289 290 292 293 294 295 295 297 298 298 299 301 302 306 317 329 331 333 334 331 328 329 327 329 330 331 331 332 331
286 289 289 289 290 292 287 291 288 287 284 281 280 276 281 287 285 288 291 292 293 293 296 298 299 300 302 301 299 302 307 322 331 332 332 330 328 329 330 328 328 331 333 332
289 294 292 291 293 293 293 289 287 286 283 275 280 279 278 283 286 288 289 291 295 296 296 297 298 299 300 302 304 301 302 308 314 326 327 330 328 328 328 327 329 328 328 322
286 288 292 295 289 293 290 284 274 272 273 272 281 280 281 287 287 289 290 292 294 294 293 293 293 293 294 297 300 305 304 301 303 305 306 310 314 315 315 318 319 321 317 316
279 276 288 293 290 287 287 284 277 269 271 275 280 276 281 290 292 292 294 294 293 292 291 290 290 290 290 292 294 297 297 297 297 297 298 301 304 305 304 305 306 306 307 309
281 280 291 292 292 291 287 283 287 280 275 273 277 281 287 290 290 291 292 292 290 290 289 289 289 288 288 289 290 291 292 293 293 294 295 295 297 299 299 300 300 301 303 304
284 279 287 290 292 292 289 290 280 279 267 268 276 277 279 285 287 290 290 289 289 289 288 287 286 287 287 287 287 288 288 288 290 291 291 291 292 293 294 295 295 296 298 298
287 281 282 288 286 284 285 284 285 284 280 273 272 276 285 288 289 289 289 289 289 288 287 286 286 286 286 286 285 285 285 286 287 287 288 288 289 289 290 290 290 292 293 293
288 283 275 280 287 290 287 286 286 278 273 278 278 277 290 290 291 289 288 289 287 287 285 284 284 285 284 284 283 283 284 284 285 286 286 285 286 286 286 287 288 290 290 290
286 277 270 276 281 286 283 286 287 286 285 279 273 276 289 290 290 289 288 287 286 285 284 284 283 282 282 282 282 282 283 283 284 284 283 283 283 283 284 284 286 287 287 287
289 281 271 270 278 281 279 282 284 284 280 280 280 281 284 287 287 288 287 286 285 284 284 282 281 281 281 281 280 280 281 283 283 282 282 281 282 282 283 283 283 284 285 285
284 271 278 278 280 281 278 280 281 279 280 279 282 281 286 288 288 288 287 286 285 284 283 282 281 280 280 280 280 280 280 282 282 281 281 280 281 282 282 282 282 282 282 283
285 273 275 270 279 280 279 282 282 282 281 279 279 281 291 293 290 287 286 285 284 283 282 281 280 280 279 279 279 279 279 279 280 279 279 279 280 280 280 280 281 281 281 281
277 277 270 265 277 275 268 277 281 282 284 282 275 284 289 288 287 287 287 286 285 283 281 280 279 278 278 278 278 277 278 278 277 277 277 277 278 277 278 278 279 279 279 279
277 271 272 265 267 260 276 281 282 282 284 286 285 286 288 289 290 288 288 286 284 282 280 279 278 276 277 277 277 277 277 276 276 275 275 276 277 276 277 276 276 277 277 277
282 273 266 264 264 270 274 278 277 278 279 285 286 287 287 287 287 287 289 289 286 283 282 279 278 277 277 276 276 276 275 275 274 273 274 274 275 275 275 275 274 275 276 275
280 279 270 263 260 259 273 276 280 281 272 280 284 284 282 283 281 285 284 283 281 280 279 277 277 277 276 276 276 275 274 273 272 272 272 273 274 273 272 273 273 275 275 275
265 265 263 263 260 268 276 277 279 268 273 278 280 282 280 281 279 278 278 277 278 278 277 276 276 275 275 275 275 273 272 270 271 271 271 271 272 272 272 272 273 273 273 273
267 263 261 262 260 261 278 277 275 277 279 278 279 280 280 276 276 276 276 276 276 275 275 275 273 272 273 273 273 271 269 270 270 270 269 269 270 271 271 271 271 272 272 271
268 273 269 271 270 277 278 278 280 279 278 278 277 279 278 276 273 274 273 273 274 274 274 273 271 270 270 271 271 270 268 269 268 267 266 266 268 270 271 269 269 268 269 268
275 277 273 272 275 278 278 279 280 280 278 278 278 279 278 274 274 273 273 273 272 272 270 269 269 267 266 266 268 266 266 266 265 264 264 265 265 266 266 269 269 267 267 267
274 275 273 274 276 277 280 278 278 278 276 275 274 275 275 276 274 274 272 270 268 267 267 268 267 266 265 264 263 262 264 264 264 265 265 265 265 265 265 267 266 268 268 268
274 274 274 274 277 277 275 272 272 273 272 272 273 270 271 273 274 272 271 270 270 268 266 265 266 265 263 263 262 261 262 264 264 265 265 264 265 263 265 264 263 268 269 270
Wind_Speed
9 5 8 8 10 9 2 4 6 4 6 3 5 8 10 12 6 6 5 6 7 8 5 3 5 2 8 8 8 11 13 12 9 8 8 6 7 5 5 5 7 8 9 10
4 10 9 7 8 11 6 5 4 5 4 2 5 9 10 12 9 9 9 8 7 6 3 4 1 2 4 6 7 8 15 14 11 8 9 6 5 4 5 6 7 7 7 7
10 3 13 10 8 7 8 7 4 1 2 3 6 8 10 11 9 9 8 7 6 7 6 6 5 7 4 4 7 7 9 15 14 13 8 4 3 3 5 6 5 5 8 7
10 15 5 11 9 7 9 7 7 4 1 2 2 6 5 19 16 13 9 7 7 5 5 3 7 7 4 7 6 4 6 9 14 16 12 11 7 7 8 8 4 5 7 7
6 10 15 9 9 9 5 7 6 6 5 3 5 3 7 11 2 7 10 6 8 8 9 9 10 8 8 9 8 7 6 6 7 10 13 11 10 7 6 3 8 9 6 5
11 2 3 13 7 7 2 3 2 2 2 6 8 8 6 8 8 6 7 9 9 8 9 10 10 11 11 11 10 8 7 10 13 4 1 10 10 8 4 5 5 5 4 5
6 10 3 3 7 1 7 6 2 1 2 6 5 11 10 2 4 7 10 9 8 8 8 8 9 9 10 11 11 10 11 11 11 12 12 10 8 7 6 5 4 6 5 3
7 4 12 6 5 6 12 12 5 7 4 4 6 7 5 6 9 10 11 10 8 7 7 7 7 6 7 9 11 11 11 11 11 12 12 10 10 6 7 8 7 7 7 5
6 9 10 12 8 9 9 12 7 5 2 2 5 4 2 8 8 8 10 9 7 7 6 6 6 6 7 8 10 10 10 11 12 12 10 12 11 10 9 9 9 8 7 8
3 3 3 11 9 9 8 6 5 3 3 5 5 5 5 3 7 7 8 7 6 7 6 6 6 6 6 7 7 9 10 10 11 11 10 10 11 11 10 10 11 10 10 10
5 2 2 6 8 9 9 6 4 3 6 4 1 4 4 6 8 10 9 7 7 7 7 6 6 5 7 7 8 8 9 10 11 11 11 11 11 11 11 11 10 10 11 11
8 2 2 3 4 6 5 8 9 4 5 4 5 8 4 8 10 12 8 8 8 7 7 6 6 6 7 8 8 8 8 9 9 10 11 12 12 12 12 11 11 10 11 10
2 1 1 2 0 3 4 5 9 11 9 6 2 4 4 6 7 7 8 9 8 7 7 6 6 6 6 7 7 8 8 9 9 10 11 11 11 11 11 10 9 9 10 10
6 2 5 4 4 3 2 6 7 6 6 11 13 6 4 5 6 6 8 8 7 7 7 7 6 6 5 6 6 6 7 7 8 9 10 10 10 10 9 9 10 10 9 9
2 1 3 3 2 1 1 3 4 9 9 9 4 8 9 8 8 8 7 8 9 7 7 7 6 6 6 6 6 6 6 7 8 9 9 9 8 8 8 9 8 9 9 9
1 2 1 3 2 3 7 6 8 8 9 9 11 9 3 5 3 8 7 6 7 7 7 7 6 7 6 6 5 6 6 7 7 8 8 7 8 8 8 8 8 8 8 8
1 1 1 4 1 1 6 8 10 5 6 6 5 5 6 4 7 6 8 7 7 7 8 8 7 6 6 6 6 6 5 6 7 7 7 7 7 7 7 7 7 8 8 8
2 2 1 2 3 1 7 2 1 6 8 10 6 8 12 12 15 10 9 7 8 9 8 8 7 6 6 6 6 5 5 6 6 7 7 6 6 7 7 7 7 6 6 7
2 1 1 2 3 6 9 1 1 3 5 10 12 8 5 4 6 5 3 7 9 11 10 8 7 8 6 6 6 6 6 6 6 6 6 6 6 6 7 8 7 5 6 6
0 3 4 2 1 6 1 3 4 4 5 10 5 7 8 6 4 5 8 7 10 13 12 11 10 8 6 5 6 6 6 6 6 5 6 5 5 6 6 6 5 5 4 6
1 1 5 4 2 8 1 1 3 7 6 7 7 2 7 5 2 3 8 9 8 10 12 10 8 7 6 5 5 6 5 6 5 4 5 5 5 6 5 5 4 4 5 5
6 5 4 1 2 8 4 2 5 4 4 3 4 5 4 7 6 6 7 9 9 10 9 8 8 7 5 4 5 6 6 5 4 4 5 5 4 4 4 5 4 4 3 4
3 7 5 8 7 5 4 4 3 3 2 5 3 3 6 7 5 6 6 7 7 7 7 6 8 8 4 3 3 6 5 5 4 5 4 4 5 4 3 3 3 3 3 2
5 4 3 4 7 9 5 5 5 7 6 1 1 2 5 5 6 5 6 6 7 6 6 5 7 6 4 3 5 6 5 5 5 5 4 3 3 2 2 2 2 2 2 1
5 4 5 6 7 7 11 8 7 4 5 4 2 1 1 7 5 6 6 7 6 5 4 6 6 5 5 4 5 4 5 5 4 3 2 2 3 1 2 2 2 2 2 2
7 9 6 9 7 7 6 2 1 5 6 6 7 2 2 4 7 6 6 6 7 7 6 5 6 6 6 6 5 4 4 4 5 4 3 3 3 2 2 2 1 2 3 3
Wind_Direction
193 197 200 203 211 245 340 324 277 262 46 46 262 259 230 240 211 237 235 248 258 277 288 337 65 353 165 162 173 160 155 165 180 192 202 193 194 185 186 197 200 186 186 200
189 226 217 234 228 232 232 227 260 319 293 335 283 267 248 250 250 218 224 219 223 231 264 274 159 37 335 174 180 177 162 167 185 196 199 205 170 177 196 209 206 190 183 184
213 131 205 232 223 242 226 230 228 150 334 264 292 267 254 259 234 242 231 229 241 235 221 200 200 189 225 262 193 197 177 173 180 190 198 147 129 186 207 208 199 198 191 190
228 230 238 206 222 201 240 219 254 244 268 226 168 285 248 232 233 220 226 215 215 263 285 40 38 41 39 349 354 342 203 191 184 184 179 178 193 190 213 211 174 195 199 190
201 188 214 212 210 197 239 287 237 227 252 297 241 279 242 266 170 169 204 185 65 54 53 47 33 24 32 7 348 346 344 320 200 186 172 186 189 214 186 192 186 200 190 198
235 165 263 225 205 202 138 242 188 221 219 263 210 212 223 243 201 173 98 77 64 49 47 40 34 27 19 12 1 342 343 16 19 0 186 177 188 198 219 201 180 139 106 75
252 204 279 113 196 332 162 167 132 206 211 226 187 211 238 313 75 104 120 104 76 58 44 39 31 30 22 13 9 24 40 37 32 36 39 40 58 61 61 50 57 96 86 56
193 222 202 207 183 168 192 192 167 187 199 208 186 237 223 68 79 87 83 89 83 70 66 53 42 39 35 22 18 32 40 45 41 46 45 45 47 58 63 54 65 70 77 62
202 229 157 179 202 165 188 224 254 7 152 56 220 273 180 137 123 115 113 98 90 80 71 73 59 44 45 43 31 32 43 51 46 50 52 54 54 53 65 63 63 66 60 68
60 348 309 182 200 244 188 153 211 202 210 232 237 235 209 216 170 143 121 110 107 102 88 74 66 58 55 54 49 45 44 54 57 55 54 60 60 60 57 60 62 61 62 62
116 91 57 202 207 195 218 188 261 271 207 200 241 233 339 245 155 146 116 126 122 106 98 90 85 66 66 63 57 54 49 51 54 56 58 60 60 60 61 63 60 56 60 60
187 111 219 249 301 322 333 262 179 199 246 237 291 268 52 47 70 107 122 114 104 107 105 102 91 83 72 66 65 60 58 59 56 59 62 62 61 59 59 58 58 57 63 63
30 210 75 315 303 181 239 240 230 258 288 233 183 263 81 92 98 115 140 123 122 120 118 99 77 68 69 70 65 62 61 63 61 63 64 63 61 62 61 57 53 57 63 63
342 310 166 205 68 91 207 356 346 253 239 247 225 253 198 175 141 146 129 131 134 130 120 111 96 84 64 62 66 62 62 65 71 71 69 69 65 64 63 62 58 56 55 62
62 229 11 317 13 60 255 203 254 290 289 265 334 326 335 326 157 152 140 136 135 132 137 121 114 107 96 82 73 64 58 60 70 74 72 68 66 66 67 66 66 63 63 59
7 254 72 311 307 353 295 252 228 222 241 231 242 261 75 270 80 125 144 143 155 152 131 120 115 107 94 84 75 67 59 55 63 70 70 68 68 66 61 60 63 66 60 60
58 23 73 268 76 326 329 223 221 203 190 184 192 182 118 30 323 141 148 173 171 159 142 139 130 112 100 88 80 73 69 64 63 65 60 63 71 75 66 66 66 68 70 70
145 2 2 253 39 22 247 8 72 228 245 205 247 188 186 184 192 170 149 192 159 150 143 138 128 111 103 95 87 82 72 72 74 70 65 56 61 70 71 67 64 59 72 71
10 153 356 137 208 286 326 57 103 172 277 213 215 191 197 136 112 254 173 161 155 148 137 131 124 125 125 117 114 109 93 79 75 67 61 54 57 65 67 67 54 48 66 79
232 17 125 67 155 212 198 339 340 330 291 350 271 168 140 125 188 228 163 140 121 120 127 132 131 132 125 125 123 119 106 100 86 78 72 56 50 65 64 67 59 53 69 79
144 313 177 229 237 294 156 302 338 84 261 328 344 9 131 169 175 109 88 77 92 113 120 120 123 130 123 117 114 110 104 93 91 95 86 67 63 70 67 63 59 61 67 74
170 155 205 153 118 275 186 77 171 207 299 302 336 346 138 119 125 119 110 111 112 117 125 128 122 114 103 112 123 122 109 110 100 87 81 71 48 66 72 74 60 55 79 88
274 188 194 173 216 219 226 229 190 157 246 310 335 334 130 133 160 151 143 131 131 133 133 118 127 126 107 87 105 127 125 122 107 94 88 74 54 50 51 72 75 72 53 83
247 165 210 61 273 254 245 251 222 187 203 259 283 244 152 151 157 147 146 143 139 138 138 126 133 139 134 93 77 111 113 101 109 107 93 88 87 102 36 65 51 81 73 67
198 105 197 256 268 320 276 223 212 199 169 154 121 114 236 144 170 159 156 154 143 140 133 141 150 147 156 133 111 104 115 118 119 117 136 144 148 142 104 53 65 45 76 98
176 199 183 238 198 188 226 215 318 170 200 196 167 180 257 161 173 150 168 161 158 159 150 152 157 147 156 148 142 123 114 140 155 154 174 185 162 178 151 146 227 235 238 234